Time,TemperatureF,DewpointF,PressureIn,WindDirection,WindDirectionDegrees,WindSpeedMPH,WindSpeedGustMPH,Humidity,HourlyPrecipIn,Conditions,Clouds,dailyrainin,SoftwareType,DateUTC
2013-05-08 00:00:00,58.5,-99.9,29.99,WSW,247,0.0,0.0,-999,-99.99,,,-99.99,,2013-05-08 07:00:00,
2013-05-08 00:05:00,58.5,-99.9,29.99,WSW,247,0.0,0.0,-999,-99.99,,,-99.99,,2013-05-08 07:05:00,
2013-05-08 00:10:00,58.7,-99.9,29.99,WSW,247,0.0,0.0,-999,-99.99,,,-99.99,,2013-05-08 07:10:00,
2013-05-08 00:20:00,58.3,-99.9,29.99,WSW,247,0.0,0.0,-999,-99.99,,,-99.99,,2013-05-08 07:20:00,
2013-05-08 00:25:00,58.4,-99.9,29.99,WSW,247,0.0,0.0,-999,-99.99,,,-99.99,,2013-05-08 07:25:00,
2013-05-08 00:30:00,58.1,-99.9,29.99,WSW,247,0.0,0.0,-999,-99.99,,,-99.99,,2013-05-08 07:30:00,
2013-05-08 00:35:00,58.9,-99.9,29.99,WSW,247,0.0,0.0,-999,-99.99,,,-99.99,,2013-05-08 07:35:00,
2013-05-08 00:40:00,58.2,-99.9,29.99,WSW,247,0.0,0.0,-999,-99.99,,,-99.99,,2013-05-08 07:40:00,
2013-05-08 00:45:00,57.9,-99.9,29.99,WSW,247,0.0,0.0,-999,-99.99,,,-99.99,,2013-05-08 07:45:00,
2013-05-08 00:50:00,57.8,-99.9,29.99,WSW,247,0.0,0.0,-999,-99.99,,,-99.99,,2013-05-08 07:50:00,
2013-05-08 00:55:00,57.9,-99.9,29.99,WSW,247,0.0,0.0,-999,-99.99,,,-99.99,,2013-05-08 07:55:00,
2013-05-08 01:00:00,58.6,-99.9,29.99,WSW,247,0.0,0.0,-999,-99.99,,,-99.99,,2013-05-08 08:00:00,
2013-05-08 01:10:00,57.9,-99.9,29.99,WSW,247,0.0,0.0,-999,-99.99,,,-99.99,,2013-05-08 08:10:00,
2013-05-08 01:15:00,57.7,-99.9,29.98,WSW,247,0.0,0.0,-999,-99.99,,,-99.99,,2013-05-08 08:15:00,
2013-05-08 01:20:00,58.4,-99.9,29.99,WSW,247,0.0,0.0,-999,-99.99,,,-99.99,,2013-05-08 08:20:00,
2013-05-08 01:25:00,57.8,-99.9,29.99,WSW,247,0.0,0.0,-999,-99.99,,,-99.99,,2013-05-08 08:25:00,
2013-05-08 01:30:00,57.3,-99.9,29.99,WSW,247,0.0,0.0,-999,-99.99,,,-99.99,,2013-05-08 08:30:00,
2013-05-08 01:35:00,57.6,-99.9,29.99,WSW,247,0.0,0.0,-999,-99.99,,,-99.99,,2013-05-08 08:35:00,
2013-05-08 01:40:00,57.6,-99.9,29.99,WSW,247,0.0,0.0,-999,-99.99,,,-99.99,,2013-05-08 08:40:00,
2013-05-08 01:45:00,57.5,-99.9,29.99,WSW,247,0.0,0.0,-999,-99.99,,,-99.99,,2013-05-08 08:45:00,
2013-05-08 01:50:00,57.3,-99.9,29.99,WSW,247,0.0,0.0,-999,-99.99,,,-99.99,,2013-05-08 08:50:00,
2013-05-08 01:55:00,57.5,-99.9,29.99,WSW,247,0.0,0.0,-999,-99.99,,,-99.99,,2013-05-08 08:55:00,
2013-05-08 02:00:00,57.4,-99.9,29.99,WSW,247,0.0,0.0,-999,-99.99,,,-99.99,,2013-05-08 09:00:00,
2013-05-08 02:05:00,57.5,-99.9,29.99,WSW,247,0.0,0.0,-999,-99.99,,,-99.99,,2013-05-08 09:05:00,
2013-05-08 02:10:00,57.6,-99.9,29.99,WSW,247,0.0,0.0,-999,-99.99,,,-99.99,,2013-05-08 09:10:00,
2013-05-08 02:15:00,57.5,-99.9,29.99,WSW,247,0.0,0.0,-999,-99.99,,,-99.99,,2013-05-08 09:15:00,
2013-05-08 02:20:00,57.4,-99.9,29.99,WSW,247,0.0,0.0,-999,-99.99,,,-99.99,,2013-05-08 09:20:00,
2013-05-08 02:25:00,57.1,-99.9,29.99,West,259,0.0,0.0,-999,-99.99,,,-99.99,,2013-05-08 09:25:00,
2013-05-08 02:30:00,57.2,-99.9,29.99,West,259,0.0,0.0,-999,-99.99,,,-99.99,,2013-05-08 09:30:00,
2013-05-08 02:35:00,57.3,-99.9,29.99,West,259,0.0,0.0,-999,-99.99,,,-99.99,,2013-05-08 09:35:00,
2013-05-08 02:40:00,57.6,-99.9,29.98,West,259,0.0,0.0,-999,-99.99,,,-99.99,,2013-05-08 09:40:00,
2013-05-08 02:45:00,57.3,-99.9,29.99,West,259,0.0,0.0,-999,-99.99,,,-99.99,,2013-05-08 09:45:00,
2013-05-08 02:50:00,57.2,-99.9,29.98,West,259,0.0,0.0,-999,-99.99,,,-99.99,,2013-05-08 09:50:00,
2013-05-08 02:55:00,57.4,-99.9,29.98,West,259,0.0,0.0,-999,-99.99,,,-99.99,,2013-05-08 09:55:00,
2013-05-08 03:00:00,57.3,-99.9,29.98,West,259,0.0,0.0,-999,-99.99,,,-99.99,,2013-05-08 10:00:00,
2013-05-08 03:05:00,57.3,-99.9,29.98,West,259,0.0,0.0,-999,-99.99,,,-99.99,,2013-05-08 10:05:00,
2013-05-08 03:10:00,57.0,-99.9,29.99,East,87,0.0,0.0,-999,-99.99,,,-99.99,,2013-05-08 10:10:00,
2013-05-08 03:15:00,56.9,-99.9,29.99,East,87,0.0,0.0,-999,-99.99,,,-99.99,,2013-05-08 10:15:00,
2013-05-08 03:20:00,57.0,-99.9,29.99,East,87,0.0,0.0,-999,-99.99,,,-99.99,,2013-05-08 10:20:00,
2013-05-08 03:25:00,56.8,-99.9,29.99,East,87,0.0,0.0,-999,-99.99,,,-99.99,,2013-05-08 10:25:00,
2013-05-08 03:30:00,57.1,-99.9,29.99,East,87,0.0,0.0,-999,-99.99,,,-99.99,,2013-05-08 10:30:00,
2013-05-08 03:35:00,56.9,-99.9,29.99,East,87,0.0,0.0,-999,-99.99,,,-99.99,,2013-05-08 10:35:00,
2013-05-08 03:40:00,57.1,-99.9,29.99,East,87,0.0,0.0,-999,-99.99,,,-99.99,,2013-05-08 10:40:00,
2013-05-08 03:50:00,56.9,-99.9,29.99,East,88,0.0,0.0,-999,-99.99,,,-99.99,,2013-05-08 10:50:00,
2013-05-08 03:55:00,56.8,-99.9,29.99,SE,129,13.0,13.0,-999,-99.99,,,-99.99,,2013-05-08 10:55:00,
2013-05-08 04:00:00,56.9,-99.9,29.99,ESE,111,0.0,0.0,-999,-99.99,,,-99.99,,2013-05-08 11:00:00,
2013-05-08 04:10:00,56.4,-99.9,29.99,ESE,111,0.0,0.0,-999,-99.99,,,-99.99,,2013-05-08 11:10:00,
2013-05-08 04:20:00,56.8,-99.9,29.99,ESE,111,0.0,0.0,-999,-99.99,,,-99.99,,2013-05-08 11:20:00,
2013-05-08 04:30:00,56.7,-99.9,30.00,ESE,111,0.0,0.0,-999,-99.99,,,-99.99,,2013-05-08 11:30:00,
2013-05-08 04:40:00,56.5,-99.9,30.00,ESE,111,0.0,0.0,-999,-99.99,,,-99.99,,2013-05-08 11:40:00,
2013-05-08 04:45:00,56.3,-99.9,30.00,ESE,111,0.0,0.0,-999,-99.99,,,-99.99,,2013-05-08 11:45:00,
2013-05-08 04:50:00,56.6,-99.9,30.01,ESE,111,0.0,0.0,-999,-99.99,,,-99.99,,2013-05-08 11:50:00,
2013-05-08 05:00:00,56.5,-99.9,30.00,ESE,111,0.0,0.0,-999,-99.99,,,-99.99,,2013-05-08 12:00:00,
2013-05-08 05:05:00,56.3,-99.9,30.00,ESE,111,0.0,0.0,-999,-99.99,,,-99.99,,2013-05-08 12:05:00,
2013-05-08 05:10:00,56.1,-99.9,29.99,ESE,111,0.0,0.0,-999,-99.99,,,-99.99,,2013-05-08 12:10:00,
2013-05-08 05:20:00,56.3,-99.9,29.99,ESE,111,0.0,0.0,-999,-99.99,,,-99.99,,2013-05-08 12:20:00,
2013-05-08 05:30:00,56.1,-99.9,30.00,ESE,111,0.0,0.0,-999,-99.99,,,-99.99,,2013-05-08 12:30:00,
2013-05-08 05:40:00,55.7,-99.9,29.99,ESE,111,0.0,0.0,-999,-99.99,,,-99.99,,2013-05-08 12:40:00,
2013-05-08 05:45:00,56.0,-99.9,30.00,ESE,111,0.0,0.0,-999,-99.99,,,-99.99,,2013-05-08 12:45:00,
2013-05-08 05:50:00,56.0,-99.9,30.00,ESE,111,0.0,0.0,-999,-99.99,,,-99.99,,2013-05-08 12:50:00,
2013-05-08 06:00:00,55.8,-99.9,30.00,ESE,111,0.0,0.0,-999,-99.99,,,-99.99,,2013-05-08 13:00:00,
2013-05-08 06:10:00,55.9,-99.9,30.00,ESE,111,0.0,0.0,-999,-99.99,,,-99.99,,2013-05-08 13:10:00,
2013-05-08 06:20:00,56.0,-99.9,30.01,ESE,111,0.0,0.0,-999,-99.99,,,-99.99,,2013-05-08 13:20:00,
2013-05-08 06:30:00,55.8,-99.9,30.01,ESE,111,0.0,0.0,-999,-99.99,,,-99.99,,2013-05-08 13:30:00,
2013-05-08 06:40:00,55.8,-99.9,30.01,ESE,111,0.0,0.0,-999,-99.99,,,-99.99,,2013-05-08 13:40:00,
2013-05-08 06:45:00,55.9,-99.9,30.01,West,259,0.0,0.0,-999,-99.99,,,-99.99,,2013-05-08 13:45:00,
2013-05-08 06:50:00,55.9,-99.9,30.02,West,259,0.0,0.0,-999,-99.99,,,-99.99,,2013-05-08 13:50:00,
2013-05-08 07:00:00,55.9,-99.9,30.02,West,259,0.0,0.0,-999,-99.99,,,-99.99,,2013-05-08 14:00:00,
2013-05-08 07:10:00,55.5,-99.9,30.03,ENE,71,0.0,0.0,-999,-99.99,,,-99.99,,2013-05-08 14:10:00,
2013-05-08 07:20:00,55.9,-99.9,30.03,ENE,71,0.0,0.0,-999,-99.99,,,-99.99,,2013-05-08 14:20:00,
2013-05-08 07:30:00,55.7,-99.9,30.03,East,83,5.8,11.6,-999,-99.99,,,-99.99,,2013-05-08 14:30:00,
2013-05-08 07:40:00,55.7,-99.9,30.03,ESE,117,0.0,0.0,-999,-99.99,,,-99.99,,2013-05-08 14:40:00,
2013-05-08 07:50:00,55.6,-99.9,30.03,East,83,0.0,0.0,-999,-99.99,,,-99.99,,2013-05-08 14:50:00,
2013-05-08 08:00:00,55.7,-99.9,30.03,East,83,0.0,0.0,-999,-99.99,,,-99.99,,2013-05-08 15:00:00,
2013-05-08 08:10:00,55.7,-99.9,30.03,East,83,0.0,0.0,-999,-99.99,,,-99.99,,2013-05-08 15:10:00,
2013-05-08 08:20:00,55.9,-99.9,30.04,SW,225,0.0,0.0,-999,-99.99,,,-99.99,,2013-05-08 15:20:00,
2013-05-08 08:30:00,55.9,-99.9,30.04,ESE,103,0.0,0.0,-999,-99.99,,,-99.99,,2013-05-08 15:30:00,
2013-05-08 08:40:00,55.8,-99.9,30.04,ESE,110,0.0,0.0,-999,-99.99,,,-99.99,,2013-05-08 15:40:00,
2013-05-08 08:50:00,56.1,-99.9,30.04,ESE,112,0.0,0.0,-999,-99.99,,,-99.99,,2013-05-08 15:50:00,
2013-05-08 09:00:00,56.1,-99.9,30.04,ESE,112,0.0,0.0,-999,-99.99,,,-99.99,,2013-05-08 16:00:00,
2013-05-08 09:10:00,56.1,-99.9,30.05,ESE,112,0.0,0.0,-999,-99.99,,,-99.99,,2013-05-08 16:10:00,
2013-05-08 09:20:00,56.0,-99.9,30.05,ESE,117,0.0,0.0,-999,-99.99,,,-99.99,,2013-05-08 16:20:00,
2013-05-08 09:30:00,56.2,-99.9,30.05,ESE,117,0.0,0.0,-999,-99.99,,,-99.99,,2013-05-08 16:30:00,
2013-05-08 09:40:00,56.2,-99.9,30.05,ESE,117,0.0,0.0,-999,-99.99,,,-99.99,,2013-05-08 16:40:00,
2013-05-08 09:50:00,56.1,-99.9,30.05,West,266,5.3,15.0,-999,-99.99,,,-99.99,,2013-05-08 16:50:00,
2013-05-08 10:00:00,56.0,-99.9,30.05,ESE,110,0.0,0.0,-999,-99.99,,,-99.99,,2013-05-08 17:00:00,
2013-05-08 10:05:00,56.0,-99.9,30.05,ESE,110,0.0,0.0,-999,-99.99,,,-99.99,,2013-05-08 17:05:00,
2013-05-08 10:10:00,56.1,-99.9,30.05,ESE,110,0.0,0.0,-999,-99.99,,,-99.99,,2013-05-08 17:10:00,
2013-05-08 10:20:00,56.1,-99.9,30.05,SE,127,13.5,15.4,-999,-99.99,,,-99.99,,2013-05-08 17:20:00,
2013-05-08 10:30:00,56.5,-99.9,30.06,ENE,66,0.0,0.0,-999,-99.99,,,-99.99,,2013-05-08 17:30:00,
2013-05-08 10:35:00,56.4,-99.9,30.06,NW,321,0.0,8.0,-999,-99.99,,,-99.99,,2013-05-08 17:35:00,
2013-05-08 10:40:00,56.5,-99.9,30.06,West,259,0.0,0.0,-999,-99.99,,,-99.99,,2013-05-08 17:40:00,
2013-05-08 10:45:00,56.3,-99.9,30.06,West,273,14.0,15.8,-999,-99.99,,,-99.99,,2013-05-08 17:45:00,
2013-05-08 10:50:00,56.4,-99.9,30.06,East,95,7.4,13.5,-999,-99.99,,,-99.99,,2013-05-08 17:50:00,
2013-05-08 11:00:00,56.5,-99.9,30.06,SW,234,0.0,0.0,-999,-99.99,,,-99.99,,2013-05-08 18:00:00,
2013-05-08 11:05:00,56.4,-99.9,30.06,East,86,0.0,0.0,-999,-99.99,,,-99.99,,2013-05-08 18:05:00,
2013-05-08 11:10:00,56.5,-99.9,30.06,West,261,0.0,10.8,-999,-99.99,,,-99.99,,2013-05-08 18:10:00,
2013-05-08 11:15:00,56.4,-99.9,30.06,WNW,299,0.0,16.3,-999,-99.99,,,-99.99,,2013-05-08 18:15:00,
2013-05-08 11:20:00,56.7,-99.9,30.06,WNW,299,0.0,0.0,-999,-99.99,,,-99.99,,2013-05-08 18:20:00,
2013-05-08 11:25:00,56.9,-99.9,30.07,West,273,8.2,11.6,-999,-99.99,,,-99.99,,2013-05-08 18:25:00,
2013-05-08 11:30:00,57.0,-99.9,30.06,WSW,251,0.0,9.0,-999,-99.99,,,-99.99,,2013-05-08 18:30:00,
2013-05-08 11:35:00,57.1,-99.9,30.06,East,91,0.0,0.0,-999,-99.99,,,-99.99,,2013-05-08 18:35:00,
2013-05-08 11:40:00,57.2,-99.9,30.06,SE,141,12.6,12.6,-999,-99.99,,,-99.99,,2013-05-08 18:40:00,
2013-05-08 11:45:00,57.3,-99.9,30.06,SSE,163,12.1,12.1,-999,-99.99,,,-99.99,,2013-05-08 18:45:00,
2013-05-08 11:50:00,57.4,-99.9,30.07,WNW,289,0.0,0.0,-999,-99.99,,,-99.99,,2013-05-08 18:50:00,
2013-05-08 11:55:00,57.4,-99.9,30.06,WSW,249,0.0,0.0,-999,-99.99,,,-99.99,,2013-05-08 18:55:00,
2013-05-08 12:00:00,57.6,-99.9,30.06,ESE,108,0.0,0.0,-999,-99.99,,,-99.99,,2013-05-08 19:00:00,
2013-05-08 12:05:00,57.6,-99.9,30.07,ESE,108,0.0,0.0,-999,-99.99,,,-99.99,,2013-05-08 19:05:00,
2013-05-08 12:10:00,57.8,-99.9,30.06,West,280,11.1,11.1,-999,-99.99,,,-99.99,,2013-05-08 19:10:00,
2013-05-08 12:15:00,57.7,-99.9,30.06,WSW,244,0.0,0.0,-999,-99.99,,,-99.99,,2013-05-08 19:15:00,
2013-05-08 12:20:00,57.8,-99.9,30.06,NW,324,7.9,9.0,-999,-99.99,,,-99.99,,2013-05-08 19:20:00,
2013-05-08 12:25:00,57.7,-99.9,30.06,West,278,7.7,8.7,-999,-99.99,,,-99.99,,2013-05-08 19:25:00,
2013-05-08 12:30:00,57.8,-99.9,30.06,West,261,0.0,8.2,-999,-99.99,,,-99.99,,2013-05-08 19:30:00,
2013-05-08 12:40:00,57.5,-99.9,30.06,WNW,285,0.0,8.0,-999,-99.99,,,-99.99,,2013-05-08 19:40:00,
2013-05-08 12:50:00,57.7,-99.9,30.06,West,271,8.7,12.2,-999,-99.99,,,-99.99,,2013-05-08 19:50:00,
2013-05-08 12:55:00,57.9,-99.9,30.06,WSW,238,0.0,0.0,-999,-99.99,,,-99.99,,2013-05-08 19:55:00,
2013-05-08 13:00:00,57.9,-99.9,30.06,WNW,296,5.3,7.9,-999,-99.99,,,-99.99,,2013-05-08 20:00:00,
2013-05-08 13:05:00,58.1,-99.9,30.06,ESE,115,0.0,8.4,-999,-99.99,,,-99.99,,2013-05-08 20:05:00,
2013-05-08 13:10:00,58.1,-99.9,30.06,ESE,115,0.0,0.0,-999,-99.99,,,-99.99,,2013-05-08 20:10:00,
2013-05-08 13:20:00,58.2,-99.9,30.05,WSW,252,0.0,0.0,-999,-99.99,,,-99.99,,2013-05-08 20:20:00,
2013-05-08 13:30:00,58.7,-99.9,30.06,SE,125,0.0,0.0,-999,-99.99,,,-99.99,,2013-05-08 20:30:00,
2013-05-08 13:35:00,58.9,-99.9,30.05,South,176,8.0,11.4,-999,-99.99,,,-99.99,,2013-05-08 20:35:00,
2013-05-08 13:40:00,58.9,-99.9,30.05,SSW,211,0.0,0.0,-999,-99.99,,,-99.99,,2013-05-08 20:40:00,
2013-05-08 13:45:00,58.9,-99.9,30.05,SW,224,0.0,0.0,-999,-99.99,,,-99.99,,2013-05-08 20:45:00,
2013-05-08 13:50:00,59.3,-99.9,30.05,WSW,251,0.0,0.0,-999,-99.99,,,-99.99,,2013-05-08 20:50:00,
2013-05-08 13:55:00,59.5,-99.9,30.05,ESE,110,11.7,11.7,-999,-99.99,,,-99.99,,2013-05-08 20:55:00,
2013-05-08 14:00:00,59.7,-99.9,30.05,WNW,290,8.4,14.0,-999,-99.99,,,-99.99,,2013-05-08 21:00:00,
2013-05-08 14:10:00,59.7,-99.9,30.05,East,93,0.0,0.0,-999,-99.99,,,-99.99,,2013-05-08 21:10:00,
2013-05-08 14:20:00,60.0,-99.9,30.05,SSW,200,8.4,15.6,-999,-99.99,,,-99.99,,2013-05-08 21:20:00,
2013-05-08 14:25:00,60.1,-99.9,30.05,West,266,0.0,12.9,-999,-99.99,,,-99.99,,2013-05-08 21:25:00,
2013-05-08 14:30:00,60.2,-99.9,30.05,SSE,167,7.7,11.7,-999,-99.99,,,-99.99,,2013-05-08 21:30:00,
2013-05-08 14:40:00,60.5,-99.9,30.05,West,259,11.3,12.1,-999,-99.99,,,-99.99,,2013-05-08 21:40:00,
2013-05-08 14:45:00,60.4,-99.9,30.05,WSW,244,0.0,0.0,-999,-99.99,,,-99.99,,2013-05-08 21:45:00,
2013-05-08 14:50:00,61.0,-99.9,30.05,SW,231,0.0,12.7,-999,-99.99,,,-99.99,,2013-05-08 21:50:00,
2013-05-08 14:55:00,60.8,-99.9,30.05,East,81,0.0,8.7,-999,-99.99,,,-99.99,,2013-05-08 21:55:00,
2013-05-08 15:00:00,61.0,-99.9,30.05,ESE,111,0.0,0.0,-999,-99.99,,,-99.99,,2013-05-08 22:00:00,
2013-05-08 15:10:00,61.5,-99.9,30.05,West,259,0.0,0.0,-999,-99.99,,,-99.99,,2013-05-08 22:10:00,
2013-05-08 15:15:00,61.5,-99.9,30.05,East,91,0.0,0.0,-999,-99.99,,,-99.99,,2013-05-08 22:15:00,
2013-05-08 15:20:00,61.5,-99.9,30.04,East,86,0.0,0.0,-999,-99.99,,,-99.99,,2013-05-08 22:20:00,
2013-05-08 15:30:00,61.8,-99.9,30.04,South,189,0.0,0.0,-999,-99.99,,,-99.99,,2013-05-08 22:30:00,
2013-05-08 15:35:00,62.4,-99.9,30.05,South,189,0.0,0.0,-999,-99.99,,,-99.99,,2013-05-08 22:35:00,
2013-05-08 15:40:00,62.4,-99.9,30.05,NNW,333,0.0,20.6,-999,-99.99,,,-99.99,,2013-05-08 22:40:00,
2013-05-08 15:50:00,62.2,-99.9,30.04,West,271,0.0,0.0,-999,-99.99,,,-99.99,,2013-05-08 22:50:00,
2013-05-08 15:55:00,62.7,-99.9,30.04,SW,223,0.0,0.0,-999,-99.99,,,-99.99,,2013-05-08 22:55:00,
2013-05-08 16:00:00,62.5,-99.9,30.04,NE,38,0.0,0.0,-999,-99.99,,,-99.99,,2013-05-08 23:00:00,
2013-05-08 16:10:00,63.1,-99.9,30.04,SE,141,0.0,0.0,-999,-99.99,,,-99.99,,2013-05-08 23:10:00,
2013-05-08 16:15:00,62.9,-99.9,30.04,East,100,0.0,0.0,-999,-99.99,,,-99.99,,2013-05-08 23:15:00,
2013-05-08 16:20:00,63.0,-99.9,30.04,East,79,0.0,0.0,-999,-99.99,,,-99.99,,2013-05-08 23:20:00,
2013-05-08 16:25:00,63.1,-99.9,30.04,SE,125,0.0,0.0,-999,-99.99,,,-99.99,,2013-05-08 23:25:00,
2013-05-08 16:30:00,63.2,-99.9,30.04,ESE,108,0.0,8.7,-999,-99.99,,,-99.99,,2013-05-08 23:30:00,
2013-05-08 16:40:00,63.1,-99.9,30.04,West,278,0.0,7.9,-999,-99.99,,,-99.99,,2013-05-08 23:40:00,
2013-05-08 16:50:00,63.2,-99.9,30.04,West,276,0.0,0.0,-999,-99.99,,,-99.99,,2013-05-08 23:50:00,
2013-05-08 16:55:00,63.5,-99.9,30.03,East,91,8.0,15.8,-999,-99.99,,,-99.99,,2013-05-08 23:55:00,
2013-05-08 17:00:00,63.5,-99.9,30.04,SSE,148,0.0,0.0,-999,-99.99,,,-99.99,,2013-05-09 00:00:00,
2013-05-08 17:05:00,63.6,-99.9,30.04,WSW,251,0.0,0.0,-999,-99.99,,,-99.99,,2013-05-09 00:05:00,
2013-05-08 17:10:00,63.3,-99.9,30.04,East,95,11.9,13.5,-999,-99.99,,,-99.99,,2013-05-09 00:10:00,
2013-05-08 17:20:00,63.8,-99.9,30.04,West,271,0.0,5.8,-999,-99.99,,,-99.99,,2013-05-09 00:20:00,
2013-05-08 17:30:00,63.9,-99.9,30.04,East,87,0.0,0.0,-999,-99.99,,,-99.99,,2013-05-09 00:30:00,
2013-05-08 17:40:00,63.8,-99.9,30.04,West,266,0.0,0.0,-999,-99.99,,,-99.99,,2013-05-09 00:40:00,
2013-05-08 17:50:00,63.8,-99.9,30.04,ESE,121,0.0,0.0,-999,-99.99,,,-99.99,,2013-05-09 00:50:00,
2013-05-08 18:00:00,63.9,-99.9,30.04,West,278,0.0,13.2,-999,-99.99,,,-99.99,,2013-05-09 01:00:00,
2013-05-08 18:10:00,63.9,-99.9,30.04,WSW,254,0.0,0.0,-999,-99.99,,,-99.99,,2013-05-09 01:10:00,
2013-05-08 18:20:00,63.6,-99.9,30.04,WSW,254,0.0,0.0,-999,-99.99,,,-99.99,,2013-05-09 01:20:00,
2013-05-08 18:30:00,63.3,-99.9,30.04,SE,142,0.0,0.0,-999,-99.99,,,-99.99,,2013-05-09 01:30:00,
2013-05-08 18:40:00,62.4,-99.9,30.04,SE,132,0.0,0.0,-999,-99.99,,,-99.99,,2013-05-09 01:40:00,
2013-05-08 18:50:00,62.2,-99.9,30.05,SE,132,0.0,0.0,-999,-99.99,,,-99.99,,2013-05-09 01:50:00,
2013-05-08 19:00:00,62.2,-99.9,30.05,SE,132,0.0,0.0,-999,-99.99,,,-99.99,,2013-05-09 02:00:00,
2013-05-08 19:10:00,61.5,-99.9,30.05,SE,132,0.0,0.0,-999,-99.99,,,-99.99,,2013-05-09 02:10:00,
2013-05-08 19:20:00,61.5,-99.9,30.05,SE,132,0.0,0.0,-999,-99.99,,,-99.99,,2013-05-09 02:20:00,
2013-05-08 19:25:00,61.5,-99.9,30.05,SE,132,0.0,0.0,-999,-99.99,,,-99.99,,2013-05-09 02:25:00,
2013-05-08 19:35:00,61.0,-99.9,30.05,SW,217,0.0,8.7,-999,-99.99,,,-99.99,,2013-05-09 02:35:00,
2013-05-08 19:45:00,60.6,-99.9,30.05,East,86,0.0,0.0,-999,-99.99,,,-99.99,,2013-05-09 02:45:00,
2013-05-08 19:50:00,60.5,-99.9,30.05,ENE,60,0.0,5.8,-999,-99.99,,,-99.99,,2013-05-09 02:50:00,
2013-05-08 20:00:00,60.3,-99.9,30.05,East,100,0.0,0.0,-999,-99.99,,,-99.99,,2013-05-09 03:00:00,
2013-05-08 20:10:00,59.4,-99.9,30.06,East,100,0.0,0.0,-999,-99.99,,,-99.99,,2013-05-09 03:10:00,
2013-05-08 20:20:00,59.5,-99.9,30.06,East,100,0.0,0.0,-999,-99.99,,,-99.99,,2013-05-09 03:20:00,
2013-05-08 20:30:00,59.4,-99.9,30.06,East,100,0.0,0.0,-999,-99.99,,,-99.99,,2013-05-09 03:30:00,
2013-05-08 20:35:00,59.4,-99.9,30.06,East,100,0.0,0.0,-999,-99.99,,,-99.99,,2013-05-09 03:35:00,
2013-05-08 20:40:00,59.4,-99.9,30.06,East,100,0.0,0.0,-999,-99.99,,,-99.99,,2013-05-09 03:40:00,
2013-05-08 20:50:00,59.3,-99.9,30.07,East,100,0.0,0.0,-999,-99.99,,,-99.99,,2013-05-09 03:50:00,
2013-05-08 21:00:00,58.9,-99.9,30.07,East,100,0.0,0.0,-999,-99.99,,,-99.99,,2013-05-09 04:00:00,
2013-05-08 21:05:00,59.3,-99.9,30.07,East,100,0.0,0.0,-999,-99.99,,,-99.99,,2013-05-09 04:05:00,
2013-05-08 21:10:00,59.2,-99.9,30.08,East,100,0.0,0.0,-999,-99.99,,,-99.99,,2013-05-09 04:10:00,
2013-05-08 21:15:00,59.2,-99.9,30.08,East,100,0.0,0.0,-999,-99.99,,,-99.99,,2013-05-09 04:15:00,
2013-05-08 21:20:00,59.0,-99.9,30.08,East,100,0.0,0.0,-999,-99.99,,,-99.99,,2013-05-09 04:20:00,
2013-05-08 21:30:00,58.7,-99.9,30.08,East,100,0.0,0.0,-999,-99.99,,,-99.99,,2013-05-09 04:30:00,
2013-05-08 21:35:00,58.7,-99.9,30.08,East,100,0.0,0.0,-999,-99.99,,,-99.99,,2013-05-09 04:35:00,
2013-05-08 21:40:00,58.3,-99.9,30.08,East,100,0.0,0.0,-999,-99.99,,,-99.99,,2013-05-09 04:40:00,
2013-05-08 21:45:00,58.4,-99.9,30.08,East,100,0.0,0.0,-999,-99.99,,,-99.99,,2013-05-09 04:45:00,
2013-05-08 21:55:00,58.0,-99.9,30.08,East,100,0.0,0.0,-999,-99.99,,,-99.99,,2013-05-09 04:55:00,
2013-05-08 22:00:00,57.7,-99.9,30.08,East,100,0.0,0.0,-999,-99.99,,,-99.99,,2013-05-09 05:00:00,
2013-05-08 22:05:00,57.4,-99.9,30.08,East,100,0.0,0.0,-999,-99.99,,,-99.99,,2013-05-09 05:05:00,
2013-05-08 22:10:00,58.0,-99.9,30.08,East,100,0.0,0.0,-999,-99.99,,,-99.99,,2013-05-09 05:10:00,
2013-05-08 22:20:00,57.2,-99.9,30.08,East,100,0.0,0.0,-999,-99.99,,,-99.99,,2013-05-09 05:20:00,
2013-05-08 22:25:00,57.6,-99.9,30.08,East,100,0.0,0.0,-999,-99.99,,,-99.99,,2013-05-09 05:25:00,
2013-05-08 22:30:00,57.6,-99.9,30.08,East,100,0.0,0.0,-999,-99.99,,,-99.99,,2013-05-09 05:30:00,
2013-05-08 22:40:00,57.6,-99.9,30.08,East,100,0.0,0.0,-999,-99.99,,,-99.99,,2013-05-09 05:40:00,
2013-05-08 22:45:00,57.7,-99.9,30.08,East,100,0.0,0.0,-999,-99.99,,,-99.99,,2013-05-09 05:45:00,
2013-05-08 22:55:00,57.4,-99.9,30.07,East,100,0.0,0.0,-999,-99.99,,,-99.99,,2013-05-09 05:55:00,
2013-05-08 23:05:00,57.2,-99.9,30.07,East,100,0.0,0.0,-999,-99.99,,,-99.99,,2013-05-09 06:05:00,
2013-05-08 23:10:00,57.3,-99.9,30.08,East,100,0.0,0.0,-999,-99.99,,,-99.99,,2013-05-09 06:10:00,
2013-05-08 23:20:00,57.1,-99.9,30.07,East,100,0.0,0.0,-999,-99.99,,,-99.99,,2013-05-09 06:20:00,
2013-05-08 23:30:00,57.0,-99.9,30.07,East,100,0.0,0.0,-999,-99.99,,,-99.99,,2013-05-09 06:30:00,
2013-05-08 23:40:00,57.1,-99.9,30.07,East,100,0.0,0.0,-999,-99.99,,,-99.99,,2013-05-09 06:40:00,
2013-05-08 23:50:00,56.8,-99.9,30.07,East,100,0.0,0.0,-999,-99.99,,,-99.99,,2013-05-09 06:50:00,